JQ2GLP-13 Weather Reports


time (UTC)temp
C
wind
direction
speed
KPH
gust
KPH
rain 1hr
cm
rain 24hr
cm
rain mn
cm
humidity
%
barometer
mb
20260903025606 27 0 0.0 0.0 0.00 0.00 0.00 75 1005.7
20260903015604 27 0 0.0 0.0 0.00 0.00 0.00 75 1006.2
20260903012604 27 0 0.0 0.0 0.00 0.00 0.00 75 1006.1
20260903005603 27 0 0.0 0.0 0.00 0.00 0.00 75 1006.6
20260903002603 27 0 0.0 0.0 0.00 0.00 0.00 75 1006.8
20260902232603 26 0 0.0 0.0 0.00 0.00 0.00 75 1006.8
20260902225604 26 65 0.0 0.0 0.00 0.00 0.00 75 1006.9
20260902222603 26 65 0.0 0.0 0.00 0.00 0.00 77 1006.7
20260902215604 25 52 0.0 0.0 0.00 0.00 0.00 80 1006.2
20260902212603 25 53 0.0 0.0 0.00 0.00 0.00 81 1006.2
20260902205603 25 53 0.0 0.0 0.00 0.00 0.00 82 1006.3
20260902202604 25 53 0.0 0.0 0.00 0.00 0.00 81 1006.2
20260902195605 25 48 0.0 0.0 0.00 0.00 0.00 80 1006.2
20260902192604 25 48 0.0 0.0 0.00 0.00 0.00 80 1006.3
20260902185603 25 61 0.0 0.0 0.00 0.00 0.00 81 1006.5
20260902175604 25 63 0.0 0.0 0.00 0.00 0.00 80 1006.7
20260902172605 25 63 0.0 0.0 0.00 0.00 0.00 79 1007.1
20260902165604 26 21 0.0 0.0 0.00 0.00 0.00 79 1007.4
20260902155605 26 21 0.0 0.0 0.00 0.00 0.00 78 1007.5
20260902152605 26 73 0.0 0.0 0.00 0.00 0.00 77 1007.7
20260902145604 26 100 0.0 0.0 0.00 0.00 0.00 76 1007.6
20260902135605 26 186 0.0 0.0 0.00 0.00 0.00 77 1008.1
20260902125605 26 188 0.0 0.0 0.00 0.00 0.00 77 1008.1
20260902122604 26 188 0.0 0.0 0.00 0.00 0.00 75 1008.2
20260902115605 26 188 0.0 0.0 0.00 0.00 0.00 75 1008.4
20260902105605 27 199 0.0 0.0 0.00 0.00 0.00 72 1008.0
20260902102605 27 199 0.0 0.0 0.00 0.00 0.00 71 1007.8
20260902095605 27 199 0.0 0.0 0.00 0.00 0.00 69 1007.6
20260902085605 28 191 1.6 4.8 0.00 0.00 0.00 66 1007.7
20260902082606 28 205 0.0 0.0 0.00 0.00 0.00 64 1007.7
20260902075606 28 148 3.2 4.8 0.00 0.00 0.00 62 1007.6
20260902065606 30 179 4.8 9.7 0.00 0.00 0.00 60 1007.4
20260902045607 31 218 4.8 4.8 0.00 0.00 0.00 54 1007.2